Regional Weather Roundup
Issued by NWS Charleston, SC

Current Version | Previous Version | Graphics & Text | Print | Product List | Glossary On
Versions: 1 2 3 4 5 6 7 8 9 10 11 12 13 14 15 16 17 18 19 20 21 22 23 24 25 26 27 28 29 30 31 32 33 34 35 36 37 38 39 40 41 42 43 44 45 46 47 48 49 50
892
ASUS42 KCHS 280112
RWRCHS

REGIONAL WEATHER ROUNDUP
NATIONAL WEATHER SERVICE CHARLESTON SC
900 PM EDT TUE JUN 27 2017

NOTE: "FAIR" INDICATES FEW OR NO CLOUDS BELOW 12,000 FEET WITH NO
SIGNIFICANT WEATHER AND/OR OBSTRUCTIONS TO VISIBILITY.

NOT ALL STATIONS ARE QUALITY CONTROLLED. USE DATA WITH CAUTION...
ESPECIALLY DEWPOINT OBSERVATIONS.

SCZ027-030-031-034>040-042>050-280200-
...SOUTHEAST SOUTH CAROLINA...

CITY           SKY/WX    TMP DP  RH WIND       PRES   REMARKS
N CHARLESTON   CLOUDY    77  64  64 CALM      30.02R
WATERFRONT PRK   N/A     81  66  60 SE7       29.99S
JOHNS ISLAND   FAIR      79  66  65 CALM      30.02S
PINOPOLIS        N/A     81  68  65 CALM      29.95R
MONCKS CORNER  FAIR      75  68  78 CALM      30.02S
SUMMERVILLE    FAIR      75  68  78 CALM      30.03S
BEAUFORT MCAS  PTCLDY    78  70  76 CALM      30.03R
BEAUFORT ARPT  FAIR      77  68  73 CALM      30.02R
HILTON HEAD IS CLOUDY    79  70  73 CALM      30.03S
WALTERBORO     CLOUDY    75  68  78 S3        30.03S
ALLENDALE      FAIR      79  70  73 S6        30.02R

...SOUTHERN MIDLANDS AND PEE DEE...

CITY           SKY/WX    TMP DP  RH WIND       PRES   REMARKS
GEORGETOWN     FAIR      72  70  94 CALM      30.03R
KINGSTREE      FAIR      73  70  88 CALM      30.02S
ORANGEBURG     CLOUDY    77  68  73 CALM      30.03R
BARNWELL       FAIR      79  72  78 CALM      30.03R
AIKEN          FAIR      77  61  57 CALM      30.07R
MANNING        FAIR      73  64  73 CALM      30.03R
COLUMBIA       CLOUDY    84  55  36 VRB3      30.02R
SUMTER         NOT AVBL
FLORENCE       CLOUDY    80  62  54 CALM      30.03R
MYRTLE BEACH   NOT AVBL
N MYRTLE BEACH MOCLDY    75  68  78 CALM      30.01R

$$

GAZ063-065-086>088-099>101-113>116-118-119-134>141-150-280200-
...SOUTHEAST GEORGIA...

CITY           SKY/WX    TMP DP  RH WIND       PRES   REMARKS
SAVANNAH ARPT  CLOUDY    77  66  68 S5        30.03S
HUNTER AAF     MOCLDY    76  68  77 CALM      30.00S
FORT STEWART   CLOUDY    74  69  82 CALM      30.01S
STATESBORO     NOT AVBL
SYLVANIA       NOT AVBL
CLAXTON        NOT AVBL

...CSRA...CENTRAL AND FAR SOUTHEAST GEORGIA...

CITY           SKY/WX    TMP DP  RH WIND       PRES   REMARKS
THOMSON        NOT AVBL
AUGUSTA-BUSH   MOCLDY    76  67  73 SE5       30.01R
AUGUSTA-DANIEL CLEAR     83  57  41 E6        30.04R
SWAINSBORO     NOT AVBL
VIDALIA        NOT AVBL
EASTMAN        NOT AVBL
HAZLEHURST     NOT AVBL
ALMA           CLOUDY    74  68  81 SE3       30.03R
WAYCROSS       NOT AVBL
JESUP          NOT AVBL
BAXLEY         NOT AVBL
BRUNSWICK      NOT AVBL
SAINT SIMONS   CLOUDY    78  71  79 SE8       30.02S

$$

SCZ027-028-034-036>038-045-046-048>050-GAZ119-141-280200-
...LAKE AND SUPPLEMENTAL COASTAL OBSERVATIONS...

STATION/POSITION TIME  TEMP    WIND        PRES    WAVE   SWELL
                       AIR SEA DIR/SP/G            HT/PER HT/PER/DIR
                 (UTC) (F)     (DEG/KT/KT) (MB)    (FT/S) (FT/S/D)
WINYAH BAY       2345   80     160/  3     1016.0
LAKE MURRAY      0020   82      30/  2/  3 1015.6
ACE BASIN NERRS  2345   80     120/  1     1016.0
FORT PULASKI     0042   78 84  150/  2/  3 1017.0R
SAPELO ISLAND    0000   74        CALM     1017.0

$$

ANZ835-935-AMZ111-154-330-350-352-354-370-450-454-472-280200-
...C-MAN AND BUOY OBSERVATIONS...

STATION/POSITION TIME  TEMP    WIND        PRES    WAVE   SWELL
                       AIR SEA DIR/SP/G            HT/PER HT/PER/DIR
                 (UTC) (F)     (DEG/KT/KT) (MB)    (FT/S) (FT/S/D)
BUOY 41004       0050   80 81   80/  6/  8 1015.9R   2/ 8   2/120/ 8
BUOY 41008       0050   78 82  150/ 10/ 12 1015.9S   2/ 4   2/140/ 7
FOLLY BEACH CMAN 0000   81     110/  9/ 10 1016.8R
CAPERS NEARSHORE 0008   86 83  140/  8/ 12 1016.0F
FRIPP NEARSHORE  0008   80 83  140/ 10/ 12 1016.0R


STATION/POSITION TIME  TEMP    WIND        PRES    WAVE   SWELL
                       AIR SEA DIR/SP/G            HT/PER HT/PER/DIR
                 (UTC) (F)     (DEG/KT/KT) (MB)    (FT/S) (FT/S/D)
5E ST. MARYS GA  0030      81                N/A     3/ 4
FRYING PAN BUOY  0050   80 81  140/  4/  4 1015.9R   2/ 8   2/110/ 8
BUOY 41025       0050   80 82  240/  6/  8 1015.4F   2/ 5   2/150/ 5
CAPE LOOKOUT NC  0000   79     210/  5/  5 1015.4F
BUOY 41002       0050   78 80  210/  2/  2 1015.9F   3/ 5   3/210/ 5
BUOY 41010       0050   80 83  110/  4/  6 1014.9S   3/ 7   3/130/ 7
ST AUGUSTINE FL  0100   76 79   20/ 10/ 11 1017.4R


$$




USA.gov is the U.S. government's official web portal to all federal, state and local government web resources and services.